Location: Larkspur
(54.4391°N, 113.7691°W)
Time: 01:37:15
(UTC+00:00)

YUBILEINY - Pass Details

Date: 07 December 2023
Orbit: 1479 x 1508 km, 82.5° (Epoch: 03 March)

Event Time Altitude Azimuth Distance (km) Brightness Sun altitude
Rises 00:22:53 0° 338° (NNW) 4,639 ? -9.5°
Reaches altitude 10° 00:27:34 10° 360° (N) 3,650 ? -10.1°
Maximum altitude 00:32:26 16° 34° (NE) 3,214 ? -10.8°
Enters shadow 00:35:36 13° 58° (ENE) 3,397 ? -11.2°
